Time,TemperatureF,DewpointF,PressureIn,WindDirection,WindDirectionDegrees,WindSpeedMPH,WindSpeedGustMPH,Humidity,HourlyPrecipIn,Conditions,Clouds,dailyrainin,SoftwareType,DateUTC
2013-02-20 07:10:00,20.2,13.6,29.81,SSW,202,0.0,0.0,75,0.00,,---,0.00,VWS V14.01,2013-02-20 14:10:00,
2013-02-20 07:25:00,20.7,14.4,29.81,SSW,198,0.0,0.0,76,0.00,,---,0.00,VWS V14.01,2013-02-20 14:25:00,
2013-02-20 07:30:00,21.2,15.1,29.81,SSW,198,0.0,0.0,77,0.00,,---,0.00,VWS V14.01,2013-02-20 14:30:00,
2013-02-20 07:35:00,22.1,16.0,29.78,SSW,198,0.0,0.0,77,0.00,,---,0.00,VWS V14.01,2013-02-20 14:35:00,
2013-02-20 07:40:00,23.2,17.4,29.78,SSW,198,0.0,2.0,78,0.00,,---,0.00,VWS V14.01,2013-02-20 14:40:00,
2013-02-20 07:45:00,24.2,18.0,29.77,SSW,198,0.0,3.0,77,0.00,,---,0.00,VWS V14.01,2013-02-20 14:45:00,
2013-02-20 07:50:00,25.0,18.5,29.77,SSW,198,0.0,1.0,76,0.00,,---,0.00,VWS V14.01,2013-02-20 14:50:00,
2013-02-20 07:55:00,25.7,19.2,29.75,SSW,198,0.0,1.0,76,0.00,,---,0.00,VWS V14.01,2013-02-20 14:55:00,
2013-02-20 08:00:00,26.4,19.6,29.75,SSW,198,0.0,1.0,75,0.00,,---,0.00,VWS V14.01,2013-02-20 15:00:00,
2013-02-20 08:05:00,27.1,19.9,29.74,SSW,198,0.0,0.0,74,0.00,,---,0.00,VWS V14.01,2013-02-20 15:05:00,
2013-02-20 08:10:00,27.8,20.6,29.73,SSW,198,0.0,1.0,74,0.00,,---,0.00,VWS V14.01,2013-02-20 15:10:00,
2013-02-20 08:15:00,28.3,20.8,29.73,SSW,198,0.0,1.0,73,0.00,,---,0.00,VWS V14.01,2013-02-20 15:15:00,
2013-02-20 08:20:00,28.6,21.1,29.71,SSW,198,0.0,0.0,73,0.00,,---,0.00,VWS V14.01,2013-02-20 15:20:00,
2013-02-20 08:25:00,29.0,21.4,29.71,SSW,198,0.0,2.0,73,0.00,,---,0.00,VWS V14.01,2013-02-20 15:25:00,
2013-02-20 08:30:00,29.6,22.0,29.71,SSW,198,0.0,0.0,73,0.00,,---,0.00,VWS V14.01,2013-02-20 15:30:00,
2013-02-20 08:35:00,30.2,22.3,29.71,SSW,198,0.0,3.0,72,0.00,,---,0.00,VWS V14.01,2013-02-20 15:35:00,
2013-02-20 08:40:00,30.8,22.5,29.69,SSW,198,4.0,5.0,71,0.00,,---,0.00,VWS V14.01,2013-02-20 15:40:00,
2013-02-20 08:45:00,31.2,22.6,29.69,SSW,198,0.0,3.0,70,0.00,,---,0.00,VWS V14.01,2013-02-20 15:45:00,
2013-02-20 08:50:00,31.1,22.5,29.69,SSW,198,0.0,1.0,70,0.00,,---,0.00,VWS V14.01,2013-02-20 15:50:00,
2013-02-20 08:55:00,30.9,22.3,29.68,SSW,198,5.0,5.0,70,0.00,,---,0.00,VWS V14.01,2013-02-20 15:55:00,
2013-02-20 09:01:00,30.7,22.8,29.69,SSW,198,1.0,5.0,72,0.00,,---,0.00,VWS V14.01,2013-02-20 16:01:00,
2013-02-20 09:06:00,30.7,22.8,29.68,SSW,198,2.0,6.0,72,0.00,,---,0.00,VWS V14.01,2013-02-20 16:06:00,
2013-02-20 09:11:00,30.5,22.2,29.72,SSW,198,4.0,5.0,71,0.00,,---,0.00,VWS V14.01,2013-02-20 16:11:00,
2013-02-20 09:16:00,30.5,22.2,29.72,SSW,198,1.0,5.0,71,0.00,,---,0.00,VWS V14.01,2013-02-20 16:16:00,
2013-02-20 09:21:00,30.7,22.8,29.72,SSW,198,4.0,5.0,72,0.00,,---,0.00,VWS V14.01,2013-02-20 16:21:00,
2013-02-20 09:26:00,31.1,22.8,29.72,SSW,198,4.0,6.0,71,0.00,,---,0.00,VWS V14.01,2013-02-20 16:26:00,
2013-02-20 09:31:00,31.4,22.8,29.72,SSW,198,2.0,6.0,70,0.00,,---,0.00,VWS V14.01,2013-02-20 16:31:00,
2013-02-20 09:36:00,31.6,22.3,29.70,SSW,198,1.0,6.0,68,0.00,,---,0.00,VWS V14.01,2013-02-20 16:36:00,
2013-02-20 09:41:00,32.0,22.6,29.70,SSW,198,3.0,7.0,68,0.00,,---,0.00,VWS V14.01,2013-02-20 16:41:00,
2013-02-20 09:46:00,32.4,22.7,29.70,SSW,198,2.0,4.0,67,0.00,,---,0.00,VWS V14.01,2013-02-20 16:46:00,
2013-02-20 09:51:00,33.0,22.2,29.70,SSW,198,5.0,6.0,64,0.00,,---,0.00,VWS V14.01,2013-02-20 16:51:00,
2013-02-20 09:56:00,33.4,22.2,29.70,SSW,198,0.0,7.0,63,0.00,,---,0.00,VWS V14.01,2013-02-20 16:56:00,
2013-02-20 10:01:00,33.8,21.8,29.67,SSW,198,2.0,8.0,61,0.00,,---,0.00,VWS V14.01,2013-02-20 17:01:00,
2013-02-20 10:06:00,33.8,21.0,29.67,SSW,198,0.0,3.0,59,0.00,,---,0.00,VWS V14.01,2013-02-20 17:06:00,
2013-02-20 10:11:00,34.1,21.3,29.69,SSW,198,1.0,5.0,59,0.00,,---,0.00,VWS V14.01,2013-02-20 17:11:00,
2013-02-20 10:16:00,34.3,21.1,29.69,SSW,198,0.0,1.0,58,0.00,,---,0.00,VWS V14.01,2013-02-20 17:16:00,
2013-02-20 10:21:00,34.6,20.5,29.69,SSW,198,5.0,5.0,56,0.00,,---,0.00,VWS V14.01,2013-02-20 17:21:00,
2013-02-20 10:26:00,35.1,20.1,29.67,SSW,198,0.0,6.0,54,0.00,,---,0.00,VWS V14.01,2013-02-20 17:26:00,
2013-02-20 10:31:00,35.2,20.7,29.67,SSW,200,2.0,12.0,55,0.00,,---,0.00,VWS V14.01,2013-02-20 17:31:00,
2013-02-20 10:36:00,34.8,22.3,29.67,SSW,199,0.0,9.0,60,0.00,,---,0.00,VWS V14.01,2013-02-20 17:36:00,
2013-02-20 10:41:00,34.4,22.7,29.67,SSW,199,0.0,6.0,62,0.00,,---,0.00,VWS V14.01,2013-02-20 17:41:00,
2013-02-20 10:46:00,34.4,23.1,29.68,SSW,199,5.0,7.0,63,0.00,,---,0.00,VWS V14.01,2013-02-20 17:46:00,
2013-02-20 10:51:00,33.4,24.0,29.67,SSW,200,4.0,14.0,68,0.00,,---,0.00,VWS V14.01,2013-02-20 17:51:00,
2013-02-20 10:56:00,32.9,25.2,29.67,SSW,200,1.0,11.0,73,0.00,,---,0.00,VWS V14.01,2013-02-20 17:56:00,
2013-02-20 11:01:00,33.2,25.8,29.67,SSW,200,4.0,9.0,74,0.00,,---,0.00,VWS V14.01,2013-02-20 18:01:00,
2013-02-20 11:06:00,33.7,25.6,29.66,SSW,200,10.0,13.0,72,0.00,,---,0.00,VWS V14.01,2013-02-20 18:06:00,
2013-02-20 11:11:00,33.8,25.7,29.66,SSW,200,9.0,10.0,72,0.00,,---,0.00,VWS V14.01,2013-02-20 18:11:00,
2013-02-20 11:16:00,33.9,24.8,29.65,SSW,199,0.0,11.0,69,0.00,,---,0.00,VWS V14.01,2013-02-20 18:16:00,
2013-02-20 11:21:00,34.2,24.4,29.65,SSW,200,4.0,10.0,67,0.00,,---,0.00,VWS V14.01,2013-02-20 18:21:00,
2013-02-20 11:26:00,33.9,24.1,29.65,SSW,200,2.0,12.0,67,0.00,,---,0.00,VWS V14.01,2013-02-20 18:26:00,
2013-02-20 11:31:00,33.7,23.9,29.64,SSW,200,4.0,9.0,67,0.00,,---,0.00,VWS V14.01,2013-02-20 18:31:00,
2013-02-20 11:36:00,33.7,23.9,29.64,SSW,200,6.0,9.0,67,0.00,,---,0.00,VWS V14.01,2013-02-20 18:36:00,
2013-02-20 11:41:00,33.8,24.0,29.64,SSW,201,4.0,12.0,67,0.00,,---,0.00,VWS V14.01,2013-02-20 18:41:00,
2013-02-20 11:46:00,34.3,24.5,29.63,SSW,201,4.0,7.0,67,0.00,,---,0.00,VWS V14.01,2013-02-20 18:46:00,
2013-02-20 11:51:00,34.7,24.5,29.62,SSW,200,0.0,5.0,66,0.00,,---,0.00,VWS V14.01,2013-02-20 18:51:00,
2013-02-20 11:56:00,35.2,25.0,29.62,SSW,201,6.0,7.0,66,0.00,,---,0.00,VWS V14.01,2013-02-20 18:56:00,
2013-02-20 12:01:00,35.7,25.1,29.59,SSW,200,2.0,2.0,65,0.00,,---,0.00,VWS V14.01,2013-02-20 19:01:00,
2013-02-20 12:06:00,35.6,24.6,29.57,SSW,201,5.0,5.0,64,0.00,,---,0.00,VWS V14.01,2013-02-20 19:06:00,
2013-02-20 12:11:00,36.1,24.4,29.57,SSW,201,0.0,0.0,62,0.00,,---,0.00,VWS V14.01,2013-02-20 19:11:00,
2013-02-20 12:16:00,36.5,24.3,29.55,SSW,200,0.0,1.0,61,0.00,,---,0.00,VWS V14.01,2013-02-20 19:16:00,
2013-02-20 12:21:00,36.4,23.5,29.55,SSW,201,2.0,2.0,59,0.00,,---,0.00,VWS V14.01,2013-02-20 19:21:00,
2013-02-20 12:26:00,36.7,24.1,29.54,SSW,200,0.0,1.0,60,0.00,,---,0.00,VWS V14.01,2013-02-20 19:26:00,
2013-02-20 12:31:00,37.2,23.8,29.53,SSW,201,0.0,0.0,58,0.00,,---,0.00,VWS V14.01,2013-02-20 19:31:00,
2013-02-20 12:36:00,37.9,23.6,29.53,SSW,200,4.0,4.0,56,0.00,,---,0.00,VWS V14.01,2013-02-20 19:36:00,
2013-02-20 12:41:00,38.7,23.5,29.51,SSW,200,1.0,5.0,54,0.00,,---,0.00,VWS V14.01,2013-02-20 19:41:00,
2013-02-20 12:46:00,38.7,23.5,29.50,SSW,203,7.0,7.0,54,0.00,,---,0.00,VWS V14.01,2013-02-20 19:46:00,
2013-02-20 12:51:00,37.7,23.9,29.51,SSW,203,2.0,2.0,57,0.00,,---,0.00,VWS V14.01,2013-02-20 19:51:00,
2013-02-20 12:56:00,36.8,23.4,29.51,SSW,202,0.0,0.0,58,0.00,,---,0.00,VWS V14.01,2013-02-20 19:56:00,
2013-02-20 13:01:00,36.7,22.9,29.51,SSW,202,1.0,4.0,57,0.00,,---,0.00,VWS V14.01,2013-02-20 20:01:00,
2013-02-20 13:06:00,36.9,22.7,29.53,SSW,202,0.0,0.0,56,0.00,,---,0.00,VWS V14.01,2013-02-20 20:06:00,
2013-02-20 13:11:00,37.0,21.9,29.53,SSW,202,4.0,4.0,54,0.00,,---,0.00,VWS V14.01,2013-02-20 20:11:00,
2013-02-20 13:16:00,36.6,21.5,29.52,SSW,202,0.0,0.0,54,0.00,,---,0.00,VWS V14.01,2013-02-20 20:16:00,
2013-02-20 13:22:00,36.0,21.0,29.52,SSW,202,0.0,2.0,54,0.00,,---,0.00,VWS V14.01,2013-02-20 20:22:00,
2013-02-20 13:27:00,35.2,21.1,29.54,South,191,2.0,5.0,56,0.00,,---,0.00,VWS V14.01,2013-02-20 20:27:00,
2013-02-20 13:32:00,34.4,22.4,29.54,South,180,5.0,8.0,61,0.00,,---,0.00,VWS V14.01,2013-02-20 20:32:00,
2013-02-20 13:37:00,33.6,23.8,29.54,South,177,4.0,8.0,67,0.00,,---,0.00,VWS V14.01,2013-02-20 20:37:00,
2013-02-20 13:42:00,32.6,24.6,29.56,South,177,3.0,4.0,72,0.00,,---,0.00,VWS V14.01,2013-02-20 20:42:00,
2013-02-20 13:47:00,31.8,24.8,29.55,South,177,2.0,6.0,75,0.00,,---,0.00,VWS V14.01,2013-02-20 20:47:00,
2013-02-20 13:52:00,31.4,25.0,29.57,South,177,2.0,4.0,77,0.00,,---,0.00,VWS V14.01,2013-02-20 20:52:00,
2013-02-20 13:57:00,31.2,25.8,29.57,South,177,0.0,0.0,80,0.00,,---,0.00,VWS V14.01,2013-02-20 20:57:00,
2013-02-20 14:02:00,31.1,26.0,29.57,South,177,0.0,1.0,81,0.00,,---,0.00,VWS V14.01,2013-02-20 21:02:00,
2013-02-20 14:07:00,31.1,26.3,29.57,South,176,0.0,0.0,82,0.00,,---,0.00,VWS V14.01,2013-02-20 21:07:00,
2013-02-20 14:12:00,30.8,26.0,29.57,South,176,0.0,1.0,82,0.00,,---,0.00,VWS V14.01,2013-02-20 21:12:00,
2013-02-20 14:17:00,30.4,25.6,29.57,South,177,0.0,0.0,82,0.00,,---,0.00,VWS V14.01,2013-02-20 21:17:00,
2013-02-20 14:22:00,30.2,25.4,29.58,South,176,2.0,2.0,82,0.00,,---,0.00,VWS V14.01,2013-02-20 21:22:00,
2013-02-20 14:27:00,29.9,25.4,29.58,South,177,2.0,2.0,83,0.00,,---,0.00,VWS V14.01,2013-02-20 21:27:00,
2013-02-20 14:32:00,29.8,25.3,29.58,South,177,1.0,2.0,83,0.00,,---,0.00,VWS V14.01,2013-02-20 21:32:00,
2013-02-20 14:37:00,29.7,25.5,29.58,South,177,0.0,0.0,84,0.00,,---,0.00,VWS V14.01,2013-02-20 21:37:00,
2013-02-20 14:42:00,29.0,24.5,29.59,South,177,3.0,3.0,83,0.00,,---,0.00,VWS V14.01,2013-02-20 21:42:00,
2013-02-20 14:47:00,28.6,24.4,29.59,South,177,1.0,3.0,84,0.00,,---,0.00,VWS V14.01,2013-02-20 21:47:00,
2013-02-20 14:52:00,28.3,24.1,29.61,South,176,1.0,4.0,84,0.00,,---,0.00,VWS V14.01,2013-02-20 21:52:00,
2013-02-20 14:57:00,27.9,23.7,29.61,South,177,1.0,4.0,84,0.00,,---,0.00,VWS V14.01,2013-02-20 21:57:00,
2013-02-20 15:02:00,27.8,23.9,29.61,South,177,1.0,4.0,85,0.00,,---,0.00,VWS V14.01,2013-02-20 22:02:00,
2013-02-20 15:07:00,27.7,23.8,29.61,South,177,1.0,2.0,85,0.00,,---,0.00,VWS V14.01,2013-02-20 22:07:00,
2013-02-20 15:12:00,27.6,23.7,29.61,South,176,1.0,4.0,85,0.00,,---,0.00,VWS V14.01,2013-02-20 22:12:00,
2013-02-20 15:17:00,27.6,24.0,29.61,South,177,1.0,6.0,86,0.00,,---,0.00,VWS V14.01,2013-02-20 22:17:00,
2013-02-20 15:22:00,27.5,23.9,29.61,South,176,3.0,6.0,86,0.00,,---,0.00,VWS V14.01,2013-02-20 22:22:00,
2013-02-20 15:27:00,27.4,23.8,29.63,South,178,6.0,7.0,86,0.00,,---,0.00,VWS V14.01,2013-02-20 22:27:00,
2013-02-20 15:32:00,27.3,23.7,29.62,South,180,3.0,8.0,86,0.00,,---,0.00,VWS V14.01,2013-02-20 22:32:00,
2013-02-20 15:37:00,27.4,23.8,29.62,South,180,0.0,2.0,86,0.00,,---,0.00,VWS V14.01,2013-02-20 22:37:00,
2013-02-20 15:42:00,27.5,24.1,29.60,South,180,0.0,0.0,87,0.00,,---,0.00,VWS V14.01,2013-02-20 22:42:00,
2013-02-20 15:47:00,27.4,24.0,29.61,SSE,164,2.0,7.0,87,0.00,,---,0.00,VWS V14.01,2013-02-20 22:47:00,
2013-02-20 15:52:00,27.4,24.0,29.61,SSE,165,4.0,6.0,87,0.00,,---,0.00,VWS V14.01,2013-02-20 22:52:00,
2013-02-20 15:57:00,27.3,24.0,29.61,SSE,158,3.0,6.0,87,0.00,,---,0.00,VWS V14.01,2013-02-20 22:57:00,
2013-02-20 16:02:00,27.3,24.0,29.61,SSE,157,1.0,5.0,87,0.00,,---,0.00,VWS V14.01,2013-02-20 23:02:00,
2013-02-20 16:07:00,27.4,24.0,29.60,SSE,157,1.0,2.0,87,0.00,,---,0.00,VWS V14.01,2013-02-20 23:07:00,
2013-02-20 16:12:00,27.4,24.0,29.60,SSE,158,4.0,4.0,87,0.00,,---,0.00,VWS V14.01,2013-02-20 23:12:00,
2013-02-20 16:17:00,27.2,23.9,29.61,SSE,157,0.0,1.0,87,0.00,,---,0.00,VWS V14.01,2013-02-20 23:17:00,
2013-02-20 16:22:00,27.1,23.5,29.61,SSE,158,0.0,0.0,86,0.00,,---,0.00,VWS V14.01,2013-02-20 23:22:00,
2013-02-20 16:27:00,26.9,23.3,29.61,SSE,158,0.0,0.0,86,0.00,,---,0.00,VWS V14.01,2013-02-20 23:27:00,
2013-02-20 16:32:00,26.6,23.0,29.61,SSE,158,1.0,2.0,86,0.00,,---,0.00,VWS V14.01,2013-02-20 23:32:00,
2013-02-20 16:37:00,26.3,22.7,29.61,SSE,157,0.0,3.0,86,0.00,,---,0.00,VWS V14.01,2013-02-20 23:37:00,
2013-02-20 16:42:00,26.2,22.6,29.61,SSE,158,0.0,1.0,86,0.00,,---,0.00,VWS V14.01,2013-02-20 23:42:00,
2013-02-20 16:47:00,26.3,23.0,29.61,SSE,157,0.0,0.0,87,0.00,,---,0.00,VWS V14.01,2013-02-20 23:47:00,
2013-02-20 16:52:00,26.3,23.0,29.62,SSE,158,0.0,0.0,87,0.00,,---,0.00,VWS V14.01,2013-02-20 23:52:00,
2013-02-20 16:57:00,26.5,23.2,29.62,SSE,158,0.0,0.0,87,0.00,,---,0.00,VWS V14.01,2013-02-20 23:57:00,
2013-02-20 17:02:00,26.5,23.2,29.62,SSE,157,0.0,0.0,87,0.00,,---,0.00,VWS V14.01,2013-02-21 00:02:00,
2013-02-20 17:07:00,26.5,23.2,29.64,SSE,158,0.0,0.0,87,0.00,,---,0.00,VWS V14.01,2013-02-21 00:07:00,
2013-02-20 17:12:00,26.4,23.1,29.64,SSE,158,0.0,0.0,87,0.00,,---,0.00,VWS V14.01,2013-02-21 00:12:00,
2013-02-20 17:17:00,26.2,22.6,29.64,SSE,158,0.0,1.0,86,0.00,,---,0.00,VWS V14.01,2013-02-21 00:17:00,
2013-02-20 17:22:00,26.0,22.4,29.63,SSE,157,0.0,0.0,86,0.00,,---,0.00,VWS V14.01,2013-02-21 00:22:00,
2013-02-20 17:27:00,25.8,22.2,29.64,SSE,158,0.0,1.0,86,0.00,,---,0.00,VWS V14.01,2013-02-21 00:27:00,
2013-02-20 17:32:00,25.7,22.4,29.63,SSE,158,1.0,1.0,87,0.00,,---,0.00,VWS V14.01,2013-02-21 00:32:00,
2013-02-20 17:37:00,25.6,22.3,29.64,SSE,158,0.0,1.0,87,0.00,,---,0.00,VWS V14.01,2013-02-21 00:37:00,
2013-02-20 17:42:00,25.3,21.7,29.65,SSE,157,1.0,2.0,86,0.00,,---,0.00,VWS V14.01,2013-02-21 00:42:00,
2013-02-20 17:47:00,25.2,21.9,29.65,SSE,158,0.0,2.0,87,0.00,,---,0.00,VWS V14.01,2013-02-21 00:47:00,
2013-02-20 17:52:00,25.1,21.8,29.65,SSE,157,1.0,1.0,87,0.00,,---,0.00,VWS V14.01,2013-02-21 00:52:00,
2013-02-20 17:57:00,25.1,21.8,29.65,SSE,158,1.0,3.0,87,0.00,,---,0.00,VWS V14.01,2013-02-21 00:57:00,
2013-02-20 18:02:00,25.0,21.7,29.66,SSE,157,1.0,3.0,87,0.00,,---,0.00,VWS V14.01,2013-02-21 01:02:00,
2013-02-20 18:08:00,24.8,21.5,29.66,SSE,158,1.0,2.0,87,0.00,,---,0.00,VWS V14.01,2013-02-21 01:08:00,
2013-02-20 18:13:00,24.8,21.5,29.66,SSE,157,0.0,1.0,87,0.00,,---,0.00,VWS V14.01,2013-02-21 01:13:00,
2013-02-20 18:18:00,24.8,21.5,29.66,SSE,157,0.0,0.0,87,0.00,,---,0.00,VWS V14.01,2013-02-21 01:18:00,
2013-02-20 18:23:00,24.8,21.5,29.66,SSE,158,0.0,0.0,87,0.00,,---,0.00,VWS V14.01,2013-02-21 01:23:00,
2013-02-20 18:28:00,24.8,21.5,29.66,SSE,157,0.0,0.0,87,0.00,,---,0.00,VWS V14.01,2013-02-21 01:28:00,
2013-02-20 18:33:00,24.8,21.5,29.66,SSE,158,0.0,0.0,87,0.00,,---,0.00,VWS V14.01,2013-02-21 01:33:00,
2013-02-20 18:38:00,24.7,21.4,29.66,SSE,157,0.0,0.0,87,0.00,,---,0.00,VWS V14.01,2013-02-21 01:38:00,
2013-02-20 18:43:00,24.6,21.3,29.66,SSE,158,0.0,0.0,87,0.00,,---,0.00,VWS V14.01,2013-02-21 01:43:00,
2013-02-20 18:48:00,24.4,21.1,29.66,SSE,158,0.0,1.0,87,0.00,,---,0.00,VWS V14.01,2013-02-21 01:48:00,
2013-02-20 18:53:00,24.2,20.9,29.66,SSE,157,0.0,1.0,87,0.00,,---,0.00,VWS V14.01,2013-02-21 01:53:00,
2013-02-20 18:58:00,23.9,20.6,29.66,SSE,158,0.0,0.0,87,0.00,,---,0.00,VWS V14.01,2013-02-21 01:58:00,
2013-02-20 19:03:00,23.7,20.4,29.66,SSE,157,0.0,0.0,87,0.00,,---,0.00,VWS V14.01,2013-02-21 02:03:00,
2013-02-20 19:08:00,23.5,20.2,29.61,SSE,158,0.0,0.0,87,0.00,,---,0.00,VWS V14.01,2013-02-21 02:08:00,
2013-02-20 19:13:00,23.3,20.0,29.61,SSE,157,0.0,0.0,87,0.00,,---,0.00,VWS V14.01,2013-02-21 02:13:00,
2013-02-20 19:18:00,23.3,20.0,29.61,SSE,158,0.0,0.0,87,0.00,,---,0.00,VWS V14.01,2013-02-21 02:18:00,
2013-02-20 19:23:00,23.3,20.0,29.61,SSE,157,0.0,0.0,87,0.00,,---,0.00,VWS V14.01,2013-02-21 02:23:00,
2013-02-20 19:28:00,23.3,20.0,29.61,SSE,158,0.0,0.0,87,0.00,,---,0.00,VWS V14.01,2013-02-21 02:28:00,
2013-02-20 19:33:00,23.4,20.1,29.61,SSE,158,0.0,0.0,87,0.00,,---,0.00,VWS V14.01,2013-02-21 02:33:00,
2013-02-20 19:38:00,23.4,20.1,29.61,SSE,158,0.0,0.0,87,0.00,,---,0.00,VWS V14.01,2013-02-21 02:38:00,
2013-02-20 19:43:00,23.4,20.1,29.61,SSE,158,0.0,0.0,87,0.00,,---,0.00,VWS V14.01,2013-02-21 02:43:00,
2013-02-20 19:48:00,23.5,20.2,29.61,SSE,158,1.0,1.0,87,0.00,,---,0.00,VWS V14.01,2013-02-21 02:48:00,
2013-02-20 19:53:00,23.3,20.0,29.61,SSE,158,0.0,0.0,87,0.00,,---,0.00,VWS V14.01,2013-02-21 02:53:00,
2013-02-20 19:58:00,23.1,19.8,29.61,SSE,158,0.0,0.0,87,0.00,,---,0.00,VWS V14.01,2013-02-21 02:58:00,
2013-02-20 20:03:00,22.9,19.6,29.61,SSE,157,0.0,2.0,87,0.00,,---,0.00,VWS V14.01,2013-02-21 03:03:00,
2013-02-20 20:08:00,22.8,19.5,29.58,SSE,157,0.0,0.0,87,0.00,,---,0.00,VWS V14.01,2013-02-21 03:08:00,
2013-02-20 20:13:00,22.7,19.4,29.58,SSE,157,0.0,0.0,87,0.00,,---,0.00,VWS V14.01,2013-02-21 03:13:00,
2013-02-20 20:18:00,22.7,19.4,29.58,SSE,158,0.0,0.0,87,0.00,,---,0.00,VWS V14.01,2013-02-21 03:18:00,
2013-02-20 20:23:00,22.7,19.4,29.58,SSE,158,0.0,1.0,87,0.00,,---,0.00,VWS V14.01,2013-02-21 03:23:00,
2013-02-20 20:28:00,22.8,19.5,29.58,SSE,158,0.0,0.0,87,0.00,,---,0.00,VWS V14.01,2013-02-21 03:28:00,
2013-02-20 20:33:00,22.8,19.5,29.58,SSE,158,0.0,0.0,87,0.00,,---,0.00,VWS V14.01,2013-02-21 03:33:00,
2013-02-20 20:38:00,22.8,19.5,29.58,SSE,158,0.0,1.0,87,0.00,,---,0.00,VWS V14.01,2013-02-21 03:38:00,
2013-02-20 20:43:00,22.8,19.5,29.58,SSE,158,0.0,0.0,87,0.00,,---,0.00,VWS V14.01,2013-02-21 03:43:00,
2013-02-20 20:48:00,22.7,19.4,29.58,SSE,157,0.0,0.0,87,0.00,,---,0.00,VWS V14.01,2013-02-21 03:48:00,
2013-02-20 20:53:00,22.7,19.4,29.58,SSE,158,0.0,0.0,87,0.00,,---,0.00,VWS V14.01,2013-02-21 03:53:00,
2013-02-20 20:58:00,22.7,19.4,29.58,SSE,157,0.0,0.0,87,0.00,,---,0.00,VWS V14.01,2013-02-21 03:58:00,
2013-02-20 21:03:00,22.7,19.4,29.58,SSE,158,0.0,0.0,87,0.00,,---,0.00,VWS V14.01,2013-02-21 04:03:00,
2013-02-20 21:08:00,22.8,19.5,29.56,SSE,158,0.0,0.0,87,0.00,,---,0.00,VWS V14.01,2013-02-21 04:08:00,
2013-02-20 21:13:00,22.9,19.6,29.56,SSE,158,0.0,0.0,87,0.00,,---,0.00,VWS V14.01,2013-02-21 04:13:00,
2013-02-20 21:18:00,22.9,19.6,29.56,SSE,158,0.0,0.0,87,0.00,,---,0.00,VWS V14.01,2013-02-21 04:18:00,
2013-02-20 21:23:00,23.0,19.7,29.57,SSE,158,0.0,0.0,87,0.00,,---,0.00,VWS V14.01,2013-02-21 04:23:00,
2013-02-20 21:28:00,23.1,19.8,29.57,SSE,157,0.0,0.0,87,0.00,,---,0.00,VWS V14.01,2013-02-21 04:28:00,
2013-02-20 21:33:00,23.1,19.8,29.56,SSE,158,0.0,0.0,87,0.00,,---,0.00,VWS V14.01,2013-02-21 04:33:00,
2013-02-20 21:38:00,23.1,19.8,29.56,SSE,158,0.0,0.0,87,0.00,,---,0.00,VWS V14.01,2013-02-21 04:38:00,
2013-02-20 21:43:00,23.1,19.8,29.57,SSE,158,0.0,0.0,87,0.00,,---,0.00,VWS V14.01,2013-02-21 04:43:00,
2013-02-20 21:48:00,23.2,19.9,29.56,SSE,157,0.0,0.0,87,0.00,,---,0.00,VWS V14.01,2013-02-21 04:48:00,
2013-02-20 21:53:00,23.3,20.0,29.57,SSE,158,0.0,0.0,87,0.00,,---,0.00,VWS V14.01,2013-02-21 04:53:00,
2013-02-20 21:58:00,23.3,20.0,29.57,SSE,157,0.0,0.0,87,0.00,,---,0.00,VWS V14.01,2013-02-21 04:58:00,
2013-02-20 22:00:00,23.3,20.0,29.57,SSE,158,0.0,0.0,87,0.00,,---,0.00,VWS V14.01,2013-02-21 05:00:00,
2013-02-20 22:01:00,23.3,20.0,29.57,SSE,158,0.0,0.0,87,0.00,,---,0.00,VWS V14.01,2013-02-21 05:01:00,
2013-02-20 22:06:00,23.3,20.0,29.57,SSE,158,0.0,1.0,87,0.00,,---,0.00,VWS V14.01,2013-02-21 05:06:00,
2013-02-20 22:11:00,23.4,20.1,29.57,SSE,158,0.0,0.0,87,0.00,,---,0.00,VWS V14.01,2013-02-21 05:11:00,
2013-02-20 22:16:00,23.4,20.1,29.57,SSE,157,0.0,0.0,87,0.00,,---,0.00,VWS V14.01,2013-02-21 05:16:00,
2013-02-20 22:21:00,23.4,20.1,29.57,SSE,157,0.0,0.0,87,0.00,,---,0.00,VWS V14.01,2013-02-21 05:21:00,
2013-02-20 22:26:00,23.3,20.0,29.57,SSE,158,0.0,0.0,87,0.00,,---,0.00,VWS V14.01,2013-02-21 05:26:00,
2013-02-20 22:31:00,23.3,20.0,29.57,SSE,158,0.0,0.0,87,0.00,,---,0.00,VWS V14.01,2013-02-21 05:31:00,
2013-02-20 22:33:00,23.3,20.0,29.57,SSE,158,0.0,0.0,87,0.00,,---,0.00,VWS V14.01,2013-02-21 05:33:00,
2013-02-20 22:38:00,23.4,20.1,29.57,SSE,157,0.0,0.0,87,0.00,,---,0.00,VWS V14.01,2013-02-21 05:38:00,
2013-02-20 22:43:00,23.5,20.2,29.55,SSE,158,0.0,0.0,87,0.00,,---,0.00,VWS V14.01,2013-02-21 05:43:00,
2013-02-20 22:48:00,23.4,20.1,29.55,SSE,158,0.0,0.0,87,0.00,,---,0.00,VWS V14.01,2013-02-21 05:48:00,
2013-02-20 22:53:00,23.4,20.1,29.57,SSE,158,0.0,0.0,87,0.00,,---,0.00,VWS V14.01,2013-02-21 05:53:00,
2013-02-20 22:58:00,23.1,19.8,29.57,SSE,158,0.0,1.0,87,0.00,,---,0.00,VWS V14.01,2013-02-21 05:58:00,
2013-02-20 23:03:00,22.9,19.6,29.57,SSE,158,0.0,0.0,87,0.00,,---,0.00,VWS V14.01,2013-02-21 06:03:00,
2013-02-20 23:08:00,22.7,19.4,29.55,SSE,157,0.0,0.0,87,0.00,,---,0.00,VWS V14.01,2013-02-21 06:08:00,
2013-02-20 23:13:00,22.6,19.3,29.55,SSE,158,0.0,0.0,87,0.00,,---,0.00,VWS V14.01,2013-02-21 06:13:00,
2013-02-20 23:18:00,22.6,19.3,29.55,SSE,158,0.0,0.0,87,0.00,,---,0.00,VWS V14.01,2013-02-21 06:18:00,
2013-02-20 23:23:00,22.4,19.1,29.55,SSE,158,0.0,0.0,87,0.00,,---,0.00,VWS V14.01,2013-02-21 06:23:00,
2013-02-20 23:28:00,22.0,18.7,29.56,SSE,158,0.0,0.0,87,0.00,,---,0.00,VWS V14.01,2013-02-21 06:28:00,
2013-02-20 23:33:00,21.6,18.1,29.55,SSE,158,0.0,0.0,86,0.00,,---,0.00,VWS V14.01,2013-02-21 06:33:00,
2013-02-20 23:38:00,21.5,18.2,29.55,SSE,158,0.0,0.0,87,0.00,,---,0.00,VWS V14.01,2013-02-21 06:38:00,
2013-02-20 23:43:00,21.4,18.1,29.55,SSE,158,0.0,0.0,87,0.00,,---,0.00,VWS V14.01,2013-02-21 06:43:00,
2013-02-20 23:48:00,21.5,18.2,29.55,SSE,157,0.0,0.0,87,0.00,,---,0.00,VWS V14.01,2013-02-21 06:48:00,
2013-02-20 23:53:00,21.7,18.4,29.55,SSE,158,0.0,1.0,87,0.00,,---,0.00,VWS V14.01,2013-02-21 06:53:00,
2013-02-20 23:58:00,21.8,18.5,29.55,SSE,158,0.0,0.0,87,0.00,,---,0.00,VWS V14.01,2013-02-21 06:58:00,